{"data":{"norad_id":69737,"intl_designator":"2026-149A","name":"HAIYANG-2E","alt_names":[],"object_type":"PAYLOAD","status":"ACTIVE","operator":null,"country":"PRC","launch_date":"2026-07-01","launch_site_code":"JSC","launch_vehicle":null,"mission":null,"orbit_class":"UNKNOWN","rcs_meters":null,"size_class":null,"mass_kg":null,"dimensions":null,"purposes":[],"wikipedia_slug":null,"has_3d_model":false,"image_url":null,"decayed_at":null,"tle_current":{"epoch":"2026-09-20T00:57:37.247616Z","epoch_age_seconds":66329,"freshness":"FRESH","line1":"1 69737U 26149A   26263.04001444 -.00000008  00000+0  35461-4 0  9991","line2":"2 69737  99.3478 269.0684 0000394  79.1387 280.9809 13.79299747 11039","mean_motion":13.79299747,"eccentricity":3.94e-5,"inclination_deg":99.3478,"raan_deg":269.0684,"arg_perigee_deg":79.1387,"mean_anomaly_deg":280.9809,"bstar":3.5461e-5,"rev_number":1103,"period_min":104.40080215573,"perigee_km":966.08211234481,"apogee_km":966.6608596135,"semimajor_km":7344.5084859792,"source":"CELESTRAK","updated_at":"2026-09-20T09:00:25.080007Z"}}}